When you browse on this site, cookies collect data to enhance your experience and personalize the content and advertising you see.
Visit our Privacy Policy to learn more. By continuing to use the site, you agree to this use of cookies and data.
  • In Romania
  • List of Countries
  • For 7 days
  • Water Temperature
  • Satellite Maps
  • Weather Map
  • Weather Widgets
  • user-avatar
    Login

    Hourly Weather Al Hilla

    Today, 26 March, Tuesday

    Time Temperature Precipitation Wind Pressure Humidity
    00:00 +20°C° 0 mm 5 mps 750 mmHg 36%
    01:00 +20°C° 0 mm 5 mps 751 mmHg 39%
    02:00 +20°C° 0 mm 5 mps 751 mmHg 42%
    03:00 +17°C° 0 mm 7 mps 751 mmHg 49%
    04:00 +17°C° 0.2 mm 6 mps 752 mmHg 49%
    05:00 +16°C° 0.2 mm 5 mps 752 mmHg 48%
    06:00 +17°C° 0.2 mm 4 mps 752 mmHg 48%
    07:00 +18°C° 0 mm 4 mps 753 mmHg 45%
    08:00 +18°C° 0 mm 4 mps 753 mmHg 41%
    09:00 +19°C° 0 mm 4 mps 754 mmHg 37%
    10:00 +20°C° 0 mm 4 mps 754 mmHg 36%
    11:00 +21°C° 0 mm 5 mps 754 mmHg 34%
    12:00 +22°C° 0 mm 5 mps 754 mmHg 32%
    13:00 +22°C° 0 mm 5 mps 754 mmHg 33%
    14:00 +22°C° 0 mm 5 mps 754 mmHg 33%
    15:00 +23°C° 0 mm 6 mps 754 mmHg 33%
    16:00 +22°C° 0 mm 5 mps 754 mmHg 35%
    17:00 +21°C° 0 mm 5 mps 755 mmHg 36%
    18:00 +21°C° 0 mm 5 mps 755 mmHg 38%
    19:00 +20°C° 0 mm 4 mps 756 mmHg 39%
    20:00 +19°C° 0 mm 3 mps 757 mmHg 40%
    21:00 +19°C° 0 mm 2 mps 757 mmHg 41%
    22:00 +18°C° 0 mm 2 mps 758 mmHg 43%
    23:00 +19°C° 0 mm 1 mps 758 mmHg 45%

    Tomorrow, 27 March, Wednesday

    Time Temperature Precipitation Wind Pressure Humidity
    00:00 +18°C° 0 mm 1 mps 758 mmHg 46%
    01:00 +18°C° 0 mm 1 mps 758 mmHg 46%
    02:00 +17°C° 0 mm 2 mps 758 mmHg 46%
    03:00 +17°C° 0 mm 2 mps 758 mmHg 47%
    04:00 +17°C° 0 mm 2 mps 758 mmHg 48%
    05:00 +16°C° 0 mm 2 mps 759 mmHg 49%
    06:00 +16°C° 0 mm 3 mps 759 mmHg 51%
    07:00 +17°C° 0 mm 3 mps 759 mmHg 47%
    08:00 +19°C° 0 mm 4 mps 760 mmHg 43%
    09:00 +20°C° 0 mm 4 mps 760 mmHg 39%
    10:00 +22°C° 0 mm 4 mps 760 mmHg 35%
    11:00 +23°C° 0 mm 4 mps 760 mmHg 31%
    12:00 +25°C° 0 mm 4 mps 760 mmHg 26%
    13:00 +26°C° 0 mm 4 mps 759 mmHg 25%
    14:00 +26°C° 0 mm 3 mps 759 mmHg 23%
    15:00 +26°C° 0 mm 3 mps 758 mmHg 22%
    16:00 +26°C° 0 mm 3 mps 758 mmHg 22%
    17:00 +26°C° 0 mm 2 mps 758 mmHg 23%
    18:00 +25°C° 0 mm 2 mps 758 mmHg 24%
    19:00 +24°C° 0 mm 3 mps 758 mmHg 26%
    20:00 +24°C° 0 mm 3 mps 758 mmHg 28%
    21:00 +22°C° 0 mm 4 mps 759 mmHg 29%
    22:00 +21°C° 0.1 mm 4 mps 759 mmHg 31%
    23:00 +21°C° 0.1 mm 4 mps 759 mmHg 33%

    Day after tomorrow, 28 March, Thursday

    Time Temperature Precipitation Wind Pressure Humidity
    00:00 +20°C° 0.1 mm 3 mps 759 mmHg 35%
    01:00 +20°C° 0 mm 3 mps 759 mmHg 37%
    02:00 +19°C° 0 mm 3 mps 759 mmHg 39%
    03:00 +19°C° 0 mm 3 mps 758 mmHg 40%
    04:00 +18°C° 0 mm 3 mps 759 mmHg 41%
    05:00 +18°C° 0 mm 3 mps 759 mmHg 42%
    06:00 +18°C° 0 mm 3 mps 759 mmHg 44%
    07:00 +19°C° 0 mm 3 mps 759 mmHg 39%
    08:00 +20°C° 0 mm 4 mps 760 mmHg 35%
    09:00 +22°C° 0 mm 4 mps 761 mmHg 31%
    10:00 +23°C° 0 mm 4 mps 760 mmHg 28%
    11:00 +25°C° 0 mm 4 mps 760 mmHg 26%
    12:00 +25°C° 0 mm 4 mps 760 mmHg 23%
    13:00 +26°C° 0 mm 4 mps 760 mmHg 23%
    14:00 +26°C° 0 mm 5 mps 759 mmHg 22%
    15:00 +26°C° 0 mm 5 mps 759 mmHg 21%
    16:00 +26°C° 0 mm 4 mps 759 mmHg 23%
    17:00 +25°C° 0 mm 4 mps 759 mmHg 24%
    18:00 +25°C° 0 mm 3 mps 759 mmHg 25%
    19:00 +24°C° 0 mm 3 mps 759 mmHg 26%
    20:00 +22°C° 0 mm 3 mps 759 mmHg 28%
    21:00 +22°C° 0 mm 3 mps 760 mmHg 29%
    22:00 +21°C° 0 mm 3 mps 760 mmHg 31%
    23:00 +21°C° 0 mm 3 mps 760 mmHg 33%

    29 March, Friday

    Time Temperature Precipitation Wind Pressure Humidity
    00:00 +20°C° 0 mm 4 mps 760 mmHg 35%
    01:00 +20°C° 0 mm 4 mps 759 mmHg 36%
    02:00 +19°C° 0 mm 4 mps 759 mmHg 38%
    03:00 +19°C° 0 mm 4 mps 759 mmHg 39%
    04:00 +19°C° 0 mm 4 mps 759 mmHg 40%
    05:00 +19°C° 0 mm 4 mps 759 mmHg 40%
    06:00 +19°C° 0 mm 4 mps 759 mmHg 40%
    07:00 +20°C° 0 mm 4 mps 759 mmHg 38%
    08:00 +21°C° 0 mm 5 mps 759 mmHg 36%
    09:00 +23°C° 0 mm 5 mps 760 mmHg 33%
    10:00 +25°C° 0 mm 5 mps 759 mmHg 28%
    11:00 +26°C° 0 mm 5 mps 759 mmHg 23%
    12:00 +28°C° 0 mm 4 mps 758 mmHg 18%
    13:00 +28°C° 0 mm 4 mps 758 mmHg 17%
    14:00 +29°C° 0 mm 4 mps 757 mmHg 15%
    15:00 +29°C° 0 mm 4 mps 757 mmHg 14%
    16:00 +29°C° 0 mm 3 mps 756 mmHg 14%
    17:00 +28°C° 0 mm 2 mps 756 mmHg 15%
    18:00 +28°C° 0 mm 2 mps 756 mmHg 15%
    19:00 +27°C° 0 mm 3 mps 756 mmHg 15%
    20:00 +27°C° 0 mm 3 mps 756 mmHg 16%
    21:00 +26°C° 0 mm 4 mps 756 mmHg 16%
    22:00 +26°C° 0 mm 5 mps 756 mmHg 18%
    23:00 +24°C° 0 mm 6 mps 755 mmHg 20%

    30 March, Saturday

    Time Temperature Precipitation Wind Pressure Humidity
    00:00 +24°C° 0 mm 7 mps 755 mmHg 22%
    01:00 +24°C° 0 mm 8 mps 755 mmHg 23%
    02:00 +23°C° 0 mm 8 mps 754 mmHg 24%
    03:00 +23°C° 0 mm 8 mps 754 mmHg 25%
    04:00 +22°C° 0 mm 8 mps 754 mmHg 26%
    05:00 +22°C° 0 mm 8 mps 754 mmHg 27%
    06:00 +22°C° 0 mm 8 mps 754 mmHg 28%
    07:00 +23°C° 0 mm 10 mps 754 mmHg 25%
    08:00 +24°C° 0 mm 11 mps 754 mmHg 23%
    09:00 +27°C° 0 mm 13 mps 755 mmHg 20%
    10:00 +27°C° 0 mm 13 mps 754 mmHg 20%
    11:00 +28°C° 0 mm 13 mps 754 mmHg 21%
    12:00 +29°C° 0 mm 13 mps 753 mmHg 21%
    13:00 +31°C° 0 mm 12 mps 753 mmHg 21%
    14:00 +31°C° 0 mm 12 mps 752 mmHg 21%
    15:00 +32°C° 0 mm 12 mps 751 mmHg 20%
    16:00 +32°C° 0 mm 11 mps 751 mmHg 21%
    17:00 +31°C° 0 mm 10 mps 751 mmHg 22%
    18:00 +31°C° 0 mm 9 mps 750 mmHg 22%
    19:00 +29°C° 0 mm 10 mps 750 mmHg 23%
    20:00 +28°C° 0 mm 11 mps 750 mmHg 23%
    21:00 +28°C° 0 mm 12 mps 750 mmHg 24%
    22:00 +27°C° 0 mm 11 mps 750 mmHg 26%
    23:00 +26°C° 0 mm 10 mps 750 mmHg 28%

    31 March, Sunday

    Time Temperature Precipitation Wind Pressure Humidity
    00:00 +24°C° 0 mm 9 mps 750 mmHg 30%
    01:00 +23°C° 0.8 mm 8 mps 750 mmHg 37%
    02:00 +22°C° 0.8 mm 8 mps 749 mmHg 44%
    03:00 +22°C° 0.8 mm 7 mps 749 mmHg 51%
    04:00 +22°C° 1 mm 8 mps 749 mmHg 53%
    05:00 +21°C° 1 mm 9 mps 749 mmHg 55%
    06:00 +21°C° 1 mm 11 mps 749 mmHg 58%
    07:00 +23°C° 1.4 mm 11 mps 750 mmHg 54%
    08:00 +24°C° 1.4 mm 12 mps 750 mmHg 50%
    09:00 +26°C° 1.4 mm 13 mps 750 mmHg 46%
    10:00 +27°C° 0 mm 12 mps 750 mmHg 42%
    11:00 +28°C° 0 mm 11 mps 749 mmHg 38%
    12:00 +29°C° 0 mm 10 mps 749 mmHg 34%
    13:00 +31°C° 0 mm 10 mps 749 mmHg 28%
    14:00 +32°C° 0 mm 10 mps 749 mmHg 21%
    15:00 +34°C° 0 mm 9 mps 748 mmHg 15%
    16:00 +32°C° 0 mm 8 mps 749 mmHg 17%
    17:00 +30°C° 0 mm 7 mps 749 mmHg 20%
    18:00 +28°C° 0 mm 6 mps 749 mmHg 22%
    19:00 +27°C° 0 mm 4 mps 750 mmHg 25%
    20:00 +26°C° 0 mm 3 mps 750 mmHg 28%
    21:00 +25°C° 0 mm 1 mps 750 mmHg 31%
    22:00 +24°C° 0.1 mm 2 mps 750 mmHg 34%
    23:00 +24°C° 0.1 mm 3 mps 749 mmHg 37%
    Show more